Location: Oberkirch
(48.5323°N, 8.0787°E)
Time: 08:45:39
(UTC+00:00)

Tiros 1 - Pass Details

Date: 25 February 2026
Orbit: 618 x 649 km, 48.4° (Epoch: 12 March)

Event Time Altitude Azimuth Distance (km) Brightness Sun altitude
Rises 10:52:52 0° 284° (WNW) 2,906 10.3 31.5°
Reaches altitude 10° 10:55:22 10° 274° (W) 1,992 9.6 31.6°
Maximum altitude 10:59:25 32° 212° (SSW) 1,078 9.3 31.8°
Drops below altitude 10° 11:03:26 10° 150° (SSE) 1,975 10.9 31.9°
Sets 11:05:54 0° 140° (SE) 2,876 11.3 32.0°
